Location: Newark
(35.6799°N, 139.7636°E)
Time: 06:41:07
(UTC+00:00)

Vanguard 1 Rocket - Pass Details

Date: 12 December 2019
Orbit: 650 x 4226 km, 34.3° (Epoch: 26 January)

Event Time Altitude Azimuth Distance (km) Brightness Sun altitude
Rises 09:31:13 0° 225° (SW) 8,453 13.2 -24.3°
Reaches altitude 10° 09:37:38 10° 221° (SW) 7,297 12.6 -25.6°
Maximum altitude 09:59:53 52° 154° (SSE) 3,526 10.1 -30.0°
Enters shadow 10:05:01 42° 112° (ESE) 3,421 9.8 -31.1°
